Location: La Brionne
(46.1728°N, 1.7849°E)
Time: 10:12:58
(UTC+00:00)

Cosmos 1544 Rocket - Visible Passes

Search period start: 23 October 2021 00:00
Search period end: 02 November 2021 00:00
Orbit: 605 x 630 km, 82.5° (Epoch: 23 October)

Date Brightness Start Highest point End Pass type
(mag) Time Alt. Az. Time Alt. Az. Time Alt. Az.
23 Oct 5.3 04:31:48 10° N 04:35:50 34° ENE 04:39:48 10° SE visible
23 Oct 4.8 18:42:50 10° SSW 18:47:05 43° WNW 18:51:22 10° N visible
24 Oct 4.1 04:48:26 10° N 04:52:48 60° ENE 04:57:07 10° SSE visible
24 Oct 4.3 17:22:15 10° SSE 17:26:15 33° E 17:30:16 10° NNE visible
24 Oct 5.8 19:00:24 10° SW 19:04:08 25° WNW 19:07:52 10° NNW visible
25 Oct 6.8 03:29:29 10° NE 03:31:15 12° ENE 03:33:01 10° E visible
25 Oct 3.4 05:05:17 10° NNW 05:09:41 76° W 05:14:02 10° S visible
25 Oct 3.6 17:38:37 10° S 17:43:00 59° E 17:47:24 10° NNE visible
25 Oct 6.6 19:18:35 10° WSW 19:21:15 15° WNW 19:23:56 10° NNW visible
26 Oct 6.1 03:45:08 10° NNE 03:48:26 20° ENE 03:51:41 10° ESE visible
26 Oct 3.9 05:22:19 10° NNW 05:26:28 41° W 05:30:33 10° SSW visible
26 Oct 3.8 17:55:23 10° SSW 17:59:50 77° W 18:04:19 10° N visible
27 Oct 5.2 04:01:29 10° N 04:05:30 34° ENE 04:09:28 10° SE visible
27 Oct 4.6 05:39:39 10° NW 05:43:10 24° W 05:46:38 10° SW visible
27 Oct 4.9 18:12:32 10° SSW 18:16:47 43° WNW 18:21:03 10° N visible
28 Oct 4.0 04:18:07 10° N 04:22:29 60° E 04:26:46 10° SSE visible
28 Oct 5.2 05:57:33 10° NW 05:59:46 14° W 06:01:57 10° WSW visible
28 Oct 5.9 18:30:06 10° SW 18:33:48 25° WNW 18:37:32 10° NNW visible
29 Oct 6.7 02:59:10 10° NE 03:00:55 12° ENE 03:02:40 10° E visible
29 Oct 3.4 04:34:57 10° NNW 04:39:21 76° W 04:43:41 10° S visible
29 Oct 3.6 17:08:18 10° S 17:12:41 60° E 17:17:05 10° NNE visible
29 Oct 6.6 18:48:17 10° WSW 18:50:57 15° WNW 18:53:36 10° NNW visible
30 Oct 6.0 03:14:49 10° NNE 03:18:06 20° ENE 03:21:21 10° ESE visible
30 Oct 3.9 04:52:01 10° NNW 04:56:08 41° W 05:00:13 10° SSW visible
30 Oct 3.8 17:25:04 10° SSW 17:29:32 77° W 17:34:00 10° N visible
31 Oct 5.1 03:35:18 34° ENE 03:35:18 34° ENE 03:39:08 10° SE visible
31 Oct 4.6 05:12:41 23° W 05:12:50 23° W 05:16:16 10° SW visible
31 Oct 4.9 17:42:13 10° SSW 17:46:28 43° WNW 17:50:43 10° N visible
01 Nov 5.6 03:55:11 19° SSE 03:55:11 19° SSE 03:56:26 10° SSE visible
01 Nov 5.9 17:59:48 10° SW 18:03:30 25° WNW 18:07:12 10° NNW visible
